Weather reports worldwide

Advertisment
Arkona, Germany (10091): temperature & dewpoint: 11.10.2018 06:00:00 - 17.10.2018 06:00:00 (CEST)Arkona, Germany (10091): temperature 5cm & temperature -5cm: 11.10.2018 06:00:00 - 17.10.2018 06:00:00 (CEST)Arkona, Germany (10091): temperature -20cm & temperature -100cm: 11.10.2018 06:00:00 - 17.10.2018 06:00:00 (CEST)Arkona, Germany (10091): water temperature: 11.10.2018 06:00:00 - 17.10.2018 06:00:00 (CEST)Arkona, Germany (10091): wind speed & gusts: 11.10.2018 06:00:00 - 17.10.2018 06:00:00 (CEST)Arkona, Germany (10091): wind direction: 11.10.2018 06:00:00 - 17.10.2018 06:00:00 (CEST)Arkona, Germany (10091): reduced air pressure: 11.10.2018 06:00:00 - 17.10.2018 06:00:00 (CEST)Arkona, Germany (10091): visibility: 11.10.2018 06:00:00 - 17.10.2018 06:00:00 (CEST)Arkona, Germany (10091): sunshine duration: 11.10.2018 06:00:00 - 17.10.2018 06:00:00 (CEST)Arkona, Germany (10091): precipitation: 11.10.2018 06:00:00 - 17.10.2018 06:00:00 (CEST)
Date & Time tt [°C] td [°C] tt 5cm [°C] tt -5cm [°C] tt -20cm [°C] tt -100cm [°C] tw [°C] ff [km/h] ff [kn] fx [km/h] fx [kn] dd ppp [hPa] vv [km] sd [min] rr [mm]
17.10.2018 06:00:00 12,9 10,4 9,0 10,9 13,3 13,9 13,8 5 3 11 6 E 1019,5 17 0 0,0
17.10.2018 05:00:00 12,9 10,4 9,4 11,2 13,5 13,9 13,9 8 5 9 5 ESE 1019,3 16 0 0,0
17.10.2018 04:00:00 13,6 9,9 10,3 11,5 13,7 13,9 13,9 5 3 12 6 NNE 1019,1 17 0 0,0
17.10.2018 03:00:00 14,2 9,5 9,7 11,7 13,9 13,9 13,8 5 3 13 7 NW 1019,4 19 0 0,0
17.10.2018 02:00:00 15,0 9,3 12,4 12,1 14,0 13,9 13,9 13 7 16 9 W 1019,2 21 0 0,0
17.10.2018 01:00:00 15,1 9,2 12,8 12,2 14,2 13,9 13,9 13 7 17 9 WSW 1019,3 22 0 0,0
17.10.2018 00:00:00 14,7 9,1 11,6 12,4 14,4 13,9 14,0 14 7 16 9 SW 1019,5 24 0 0,0
16.10.2018 23:00:00 14,4 9,1 11,3 12,7 14,7 13,9 14,0 15 8 16 9 SSW 1019,7 28 0 0,0
16.10.2018 22:00:00 14,0 9,5 11,5 13,1 14,9 13,9 14,0 14 8 18 10 SSW 1019,9 22 0 0,0
16.10.2018 21:00:00 14,1 9,0 12,0 13,6 15,2 13,9 13,9 16 9 20 11 S 1019,9 24 0 0,0
16.10.2018 20:00:00 15,5 9,3 12,5 14,3 15,4 13,9 13,9 8 4 11 6 S 1019,4 26 0 0,0
16.10.2018 19:00:00 14,5 9,7 12,7 15,3 15,6 13,9 13,9 12 7 16 8 ESE 1019,2 22 0 0,0
16.10.2018 18:00:00 14,7 9,7 13,4 16,9 15,6 13,9 14,1 10 5 13 7 ESE 1018,8 22 51 0,0
16.10.2018 17:00:00 17,9 10,2 19,0 18,8 15,3 13,9 14,2 4 2 17 9 WSW 1018,5 26 60 0,0
16.10.2018 16:00:00 20,1 9,4 21,4 19,7 14,9 13,9 14,1 11 6 17 9 WSW 1018,5 30 60 0,0
16.10.2018 15:00:00 16,5 9,3 18,7 19,8 14,4 13,9 13,9 11 6 18 10 WNW 1018,6 23 60 0,0
16.10.2018 14:00:00 18,7 8,8 21,1 19,2 13,8 13,9 13,9 12 6 16 8 S 1018,5 28 60 0,0
16.10.2018 13:00:00 16,0 9,7 20,2 17,7 13,3 13,9 14,0 5 3 16 9 SSE 1018,5 23 60 0,0
16.10.2018 12:00:00 18,1 8,3 20,2 15,6 12,9 13,9 13,9 10 6 16 9 SSW 1018,5 26 60 0,0
16.10.2018 11:00:00 15,9 8,6 17,4 13,1 12,8 13,9 13,9 10 6 21 12 SSW 1018,3 28 60 0,0
16.10.2018 10:00:00 13,3 9,3 13,2 11,3 12,8 13,9 13,9 19 10 22 12 S 1018,0 24 60 0,0
16.10.2018 09:00:00 12,6 7,7 10,9 10,8 13,0 13,9 13,8 16 9 21 12 SSW 1017,7 33 43 0,0
16.10.2018 08:00:00 11,9 7,3 10,0 10,6 13,1 13,8 13,8 17 9 20 11 SSW 1017,2 30 0 0,0
16.10.2018 07:00:00 11,9 6,5 10,0 10,8 13,3 13,8 13,7 18 10 22 12 SSW 1017,0 35 0 0,0
16.10.2018 06:00:00 12,0 6,5 9,6 11,0 13,5 13,8 13,6 20 11 26 14 SW 1016,7 32 0 0,0
16.10.2018 05:00:00 12,1 6,4 10,4 11,3 13,7 13,8 13,5 24 13 27 15 SW 1016,6 28 0 0,0
16.10.2018 04:00:00 12,7 6,9 11,0 11,7 13,8 13,8 13,5 22 12 26 14 SW 1016,5 34 0 0,0
16.10.2018 03:00:00 13,3 7,3 12,0 12,1 14,0 13,8 13,5 24 13 31 17 SSW 1016,4 34 0 0,0
16.10.2018 02:00:00 13,9 7,6 12,7 12,1 14,2 13,8 13,5 22 12 29 16 S 1016,3 33 0 0,0
16.10.2018 01:00:00 13,8 7,2 12,3 12,4 14,4 13,8 13,6 27 15 32 17 SW 1015,9 33 0 0,0
16.10.2018 00:00:00 13,7 8,1 12,4 12,8 14,6 13,8 13,6 27 15 32 17 SSW 1015,9 36 0 0,0
15.10.2018 23:00:00 15,3 7,7 14,1 13,2 14,8 13,8 13,6 26 14 31 17 SSW 1015,9 36 0 0,0
15.10.2018 22:00:00 15,7 8,1 14,4 13,6 15,0 13,8 13,5 24 13 39 21 S 1016,1 38 0 0,0
15.10.2018 21:00:00 16,3 7,8 15,3 14,0 15,2 13,8 13,6 34 18 40 21 S 1016,0 35 0 0,0
15.10.2018 20:00:00 15,4 9,0 14,2 14,3 15,4 13,8 13,5 20 11 28 15 S 1015,9 39 0 0,0
15.10.2018 19:00:00 15,3 9,7 13,8 15,1 15,6 13,8 13,6 18 10 22 12 S 1015,8 33 1 0,0
15.10.2018 18:00:00 16,5 9,2 15,0 16,5 15,7 13,8 13,6 16 8 22 12 S 1015,3 35 60 0,0
15.10.2018 17:00:00 16,4 9,7 16,7 17,9 15,5 13,8 13,7 17 9 26 14 S 1014,9 33 40 0,0
15.10.2018 16:00:00 16,7 10,0 17,8 19,5 15,2 13,8 13,7 16 8 29 15 S 1014,9 38 60 0,0
15.10.2018 15:00:00 17,7 9,4 20,1 19,7 14,7 13,8 13,7 14 8 22 12 S 1014,7 32 60 0,0
15.10.2018 14:00:00 16,7 9,3 19,4 19,0 14,2 13,8 13,6 14 8 28 15 S 1014,7 31 60 0,0
15.10.2018 13:00:00 16,1 8,4 18,5 17,6 13,7 13,8 13,4 19 10 28 15 S 1015,0 38 60 0,0
15.10.2018 12:00:00 15,5 8,6 17,6 15,7 13,4 13,8 13,5 19 10 34 18 S 1015,3 33 60 0,0
15.10.2018 11:00:00 15,1 8,4 16,5 13,8 13,4 13,8 13,4 18 10 26 14 S 1015,2 35 60 0,0
15.10.2018 10:00:00 14,0 8,4 13,7 12,2 13,4 13,8 13,4 22 12 35 19 S 1015,0 29 60 0,0
15.10.2018 09:00:00 13,8 7,2 13,1 12,0 13,5 13,8 13,4 32 17 41 22 S 1014,9 37 52 0,0
15.10.2018 08:00:00 14,0 6,9 13,0 11,9 13,6 13,8 13,4 33 18 39 21 S 1014,4 42 0 0,0
15.10.2018 07:00:00 14,0 7,4 13,0 12,1 13,8 13,8 13,4 29 15 40 21 S 1014,3 39 0 0,0
15.10.2018 06:00:00 14,3 7,3 13,3 12,3 13,9 13,8 13,5 32 18 39 21 S 1014,2 38 0 0,0
15.10.2018 05:00:00 14,5 8,5 13,2 12,4 14,0 13,7 13,5 20 11 31 17 S 1014,4 33 0 0,0
15.10.2018 04:00:00 15,0 8,7 13,9 12,8 14,1 13,7 13,6 29 15 41 22 S 1014,1 36 0 0,0
15.10.2018 03:00:00 15,4 8,7 14,4 13,1 14,3 13,7 13,6 29 16 41 22 S 1014,2 37 0 0,0
15.10.2018 02:00:00 16,1 8,7 15,0 13,3 14,4 13,7 13,6 36 19 45 24 S 1014,1 33 0 0,0
15.10.2018 01:00:00 15,9 9,1 14,7 13,4 14,5 13,7 13,6 32 17 41 22 SSW 1013,8 33 0 0,0
15.10.2018 00:00:00 16,4 9,4 15,2 13,5 14,6 13,7 13,6 30 16 38 21 S 1014,0 35 0 0,0
14.10.2018 23:00:00 16,4 9,7 15,3 13,7 14,8 13,7 13,6 30 16 39 21 S 1013,9 35 0 0,0
14.10.2018 22:00:00 16,5 9,7 15,1 13,7 15,0 13,7 13,6 26 14 39 21 S 1013,9 35 0 0,0
14.10.2018 21:00:00 16,7 9,7 15,3 13,9 15,2 13,7 13,6 23 12 38 20 S 1014,2 36 0 0,0
14.10.2018 20:00:00 15,9 10,2 14,1 14,3 15,4 13,7 13,6 19 11 26 14 SSE 1014,3 32 0 0,0
14.10.2018 19:00:00 15,7 10,6 13,7 15,3 15,6 13,7 13,5 18 10 29 15 SSE 1014,5 30 1 0,0
14.10.2018 18:00:00 17,0 10,2 15,7 16,8 15,6 13,7 13,5 22 12 30 16 SSE 1014,2 31 60 0,0
14.10.2018 17:00:00 17,5 10,6 18,1 18,4 15,3 13,7 13,4 16 8 26 14 SSE 1014,4 28 60 0,0
14.10.2018 16:00:00 17,3 10,9 18,9 19,1 15,0 13,7 13,5 16 8 29 16 SSE 1014,5 25 60 0,0
14.10.2018 15:00:00 17,3 10,8 19,2 19,0 14,5 13,7 13,5 18 10 40 22 S 1014,7 24 60 0,0
14.10.2018 14:00:00 16,7 10,1 18,6 18,1 14,1 13,7 13,6 26 14 50 27 SSE 1015,0 22 60 0,0
14.10.2018 13:00:00 16,0 9,6 17,7 16,9 13,7 13,7 13,7 35 19 48 26 SSE 1015,6 21 60 0,0
14.10.2018 12:00:00 15,6 9,5 17,1 15,3 13,4 13,6 13,6 38 21 46 25 SSE 1016,2 21 60 0,0
14.10.2018 11:00:00 15,1 10,0 16,2 13,5 13,4 13,6 13,7 24 13 40 22 SSE 1017,1 18 60 0,0
14.10.2018 10:00:00 14,4 10,2 13,7 11,9 13,5 13,6 13,6 26 14 34 18 SSE 1017,5 18 60 0,0
14.10.2018 09:00:00 14,0 11,1 12,2 11,6 13,6 13,6 13,4 7 4 27 14 E 1017,8 11 55 0,0
14.10.2018 08:00:00 13,5 10,1 11,9 11,5 13,8 13,6 13,4 16 8 25 14 S 1018,1 18 0 0,0
14.10.2018 07:00:00 13,5 10,3 11,9 11,8 14,0 13,6 13,4 18 10 29 15 SSE 1018,3 17 0 0,0
14.10.2018 06:00:00 14,0 10,0 12,2 12,0 14,2 13,6 13,5 14 8 25 13 SSE 1018,4 21 0 0,0
14.10.2018 05:00:00 14,5 10,4 12,9 12,4 14,4 13,6 13,5 17 9 27 15 SSE 1018,9 20 0 0,0
14.10.2018 04:00:00 14,8 10,6 13,2 12,8 14,5 13,6 13,5 16 9 30 16 SSE 1019,3 19 0 0,0
14.10.2018 03:00:00 15,8 10,6 14,2 13,0 14,7 13,6 13,4 19 10 26 14 SSE 1019,9 23 0 0,0
14.10.2018 02:00:00 14,9 10,9 13,7 13,4 14,9 13,6 13,5 22 12 32 18 S 1020,3 18 0 0,0
14.10.2018 01:00:00 15,2 10,9 13,9 13,7 15,1 13,6 13,5 21 11 40 21 S 1020,7 20 0 0,0
14.10.2018 00:00:00 16,3 10,7 15,2 14,1 15,3 13,6 13,6 31 17 41 22 S 1020,8 23 0 0,0
13.10.2018 23:00:00 16,2 11,3 14,9 14,4 15,6 13,6 13,6 23 13 36 19 S 1021,1 18 0 0,0
13.10.2018 22:00:00 17,0 11,5 15,7 14,9 15,8 13,6 13,7 26 14 40 22 S 1021,3 25 0 0,0
13.10.2018 21:00:00 16,8 11,9 15,6 15,3 16,0 13,6 13,7 21 11 35 19 S 1021,6 20 0 0,0
13.10.2018 20:00:00 17,8 12,0 16,5 16,0 16,2 13,5 13,7 16 9 36 20 SSE 1021,8 24 0 0,0
13.10.2018 19:00:00 18,7 12,0 17,3 16,9 16,4 13,5 13,8 16 9 26 14 S 1021,7 26 8 0,0
13.10.2018 18:00:00 19,4 12,5 18,2 18,6 16,3 13,5 13,8 17 9 24 13 SSE 1021,7 25 60 0,0
13.10.2018 17:00:00 19,8 12,8 20,3 20,3 16,1 13,5 13,8 18 10 21 11 S 1021,8 28 60 0,0
13.10.2018 16:00:00 19,7 12,8 21,3 21,1 15,7 13,5 13,5 14 8 31 17 SSE 1022,4 26 60 0,0
13.10.2018 15:00:00 20,1 12,4 22,0 21,2 15,1 13,5 13,5 20 11 29 16 S 1022,7 25 60 0,0
13.10.2018 14:00:00 20,0 11,8 22,1 20,5 14,6 13,5 13,5 19 10 29 16 S 1023,2 24 60 0,0
13.10.2018 13:00:00 19,7 11,3 21,6 19,0 14,1 13,5 13,5 24 13 30 16 S 1023,5 25 60 0,0
13.10.2018 12:00:00 18,2 11,3 20,0 17,2 13,7 13,5 13,5 24 13 29 16 S 1023,9 24 60 0,0
13.10.2018 11:00:00 18,3 11,0 19,4 15,3 13,5 13,5 13,5 22 12 29 16 S 1023,9 29 60 0,0
13.10.2018 10:00:00 17,8 10,6 17,3 13,3 13,5 13,5 13,5 23 13 32 18 SSW 1023,9 31 60 0,0
13.10.2018 09:00:00 16,0 10,5 15,1 12,8 13,5 13,5 13,5 23 12 33 18 S 1023,9 28 60 0,0
13.10.2018 08:00:00 16,0 10,5 14,8 12,5 13,6 13,5 13,5 25 13 32 17 SSW 1023,7 28 4 0,0
13.10.2018 07:00:00 15,5 10,5 14,4 12,7 13,7 13,5 13,5 26 14 32 17 S 1023,5 25 0 0,0
13.10.2018 06:00:00 15,8 10,4 14,6 13,0 13,8 13,5 13,4 24 13 33 18 SSW 1023,5 27 0 0,0
13.10.2018 05:00:00 16,1 10,4 15,0 13,1 13,9 13,5 13,4 26 14 31 17 S 1023,5 28 0 0,0
13.10.2018 04:00:00 15,6 10,5 14,2 13,3 14,0 13,5 13,4 26 14 35 19 SSW 1023,5 25 0 0,0
13.10.2018 03:00:00 16,9 10,5 15,9 13,4 14,1 13,5 13,4 30 16 36 19 S 1023,4 28 0 0,0
13.10.2018 02:00:00 16,5 10,7 15,5 13,4 14,2 13,5 13,5 28 15 32 17 S 1023,5 27 0 0,0
13.10.2018 01:00:00 16,5 10,8 15,3 13,5 14,3 13,5 13,5 22 12 29 16 S 1023,5 28 0 0,0
13.10.2018 00:00:00 16,6 11,0 15,4 13,7 14,5 13,5 13,4 23 12 28 15 S 1023,6 26 0 0,0
12.10.2018 23:00:00 16,9 11,2 15,6 13,9 14,6 13,5 13,3 23 13 30 16 S 1023,6 27 0 0,0
12.10.2018 22:00:00 17,2 11,4 16,0 14,1 14,8 13,5 13,3 25 13 29 16 S 1023,6 25 0 0,0
12.10.2018 21:00:00 17,2 11,7 15,8 14,4 15,0 13,4 13,3 22 12 23 13 S 1023,6 23 0 0,0
12.10.2018 20:00:00 17,3 11,8 15,5 15,0 15,2 13,4 13,4 14 8 16 9 SSE 1023,6 27 0 0,0
12.10.2018 19:00:00 17,8 11,7 15,9 15,9 15,3 13,4 13,4 11 6 16 9 SSE 1023,1 27 1 0,0
12.10.2018 18:00:00 18,0 11,7 16,2 17,5 15,2 13,4 13,4 11 6 16 9 S 1022,7 27 56 0,0
12.10.2018 17:00:00 18,7 11,9 19,5 19,1 14,9 13,4 13,4 14 8 19 10 S 1022,0 24 60 0,0
12.10.2018 16:00:00 18,8 11,6 20,4 19,7 14,5 13,4 13,5 15 8 23 12 S 1022,1 24 60 0,0
12.10.2018 15:00:00 18,2 11,4 20,3 19,6 13,9 13,4 13,5 17 9 32 17 S 1021,9 22 60 0,0
12.10.2018 14:00:00 17,9 11,1 20,0 18,7 13,4 13,4 13,5 22 12 34 18 S 1021,6 26 60 0,0
12.10.2018 13:00:00 16,5 11,1 18,7 17,2 12,9 13,4 13,6 22 12 34 18 S 1021,6 26 60 0,0
12.10.2018 12:00:00 15,7 10,8 17,3 15,3 12,6 13,4 13,6 26 14 35 19 S 1021,7 20 60 0,0
12.10.2018 11:00:00 15,4 10,6 16,4 13,4 12,5 13,4 13,6 25 13 35 19 S 1021,7 21 60 0,0
12.10.2018 10:00:00 14,7 10,4 14,2 11,8 12,5 13,4 13,7 29 16 36 20 S 1021,1 22 60 0,0
12.10.2018 09:00:00 14,2 10,5 13,3 11,5 12,5 13,4 13,7 26 14 36 20 S 1020,4 22 55 0,0
12.10.2018 08:00:00 14,0 10,2 13,0 11,3 12,6 13,4 13,7 28 15 36 20 S 1020,1 20 0 0,0
12.10.2018 07:00:00 14,1 10,4 13,1 11,4 12,7 13,4 13,7 29 16 36 19 S 1019,6 22 0 0,0
12.10.2018 06:00:00 14,6 10,3 13,5 11,5 12,8 13,4 13,7 29 16 37 20 S 1019,5 22 0 0,0
12.10.2018 05:00:00 14,8 10,5 13,6 11,5 12,9 13,4 13,7 25 13 32 17 S 1019,3 21 0 0,0
12.10.2018 04:00:00 14,3 11,2 12,9 11,5 13,0 13,4 13,8 21 11 31 17 S 1019,0 16 0 0,0
12.10.2018 03:00:00 14,4 11,3 12,8 11,7 13,1 13,4 13,8 15 8 34 19 S 1019,1 17 0 0,0
12.10.2018 02:00:00 15,0 11,3 13,5 11,9 13,2 13,4 13,8 18 10 33 18 SSE 1019,2 18 0 0,0
12.10.2018 01:00:00 15,3 11,5 14,0 12,1 13,3 13,4 13,8 19 11 39 21 SSE 1019,3 18 0 0,0
12.10.2018 00:00:00 16,1 11,4 14,5 12,0 13,5 13,4 13,8 27 15 36 19 SSE 1019,4 21 0 0,0
11.10.2018 23:00:00 14,2 12,0 12,2 11,9 13,8 13,4 13,8 21 12 26 14 ESE 1019,3 18 0 0,0
11.10.2018 22:00:00 13,5 11,7 10,9 12,3 14,0 13,4 13,8 16 9 32 17 E 1019,0 13 0 0,0
11.10.2018 21:00:00 13,4 12,2 11,0 12,7 14,3 13,4 13,8 12 7 27 15 E 1019,0 15 0 0,0
11.10.2018 20:00:00 16,7 10,9 15,4 13,4 14,5 13,4 13,8 23 13 38 21 SE 1018,8 26 0 0,0
11.10.2018 19:00:00 13,2 11,9 10,8 14,3 14,7 13,4 13,7 11 6 29 16 E 1018,2 14 11 0,0
11.10.2018 18:00:00 14,2 12,1 13,6 16,0 14,8 13,4 13,7 16 9 36 19 E 1018,0 14 60 0,0
11.10.2018 17:00:00 14,8 11,9 15,5 17,6 14,6 13,4 13,7 17 9 36 19 E 1018,1 16 60 0,0
11.10.2018 16:00:00 15,5 11,9 16,7 18,6 14,2 13,4 13,6 17 9 39 21 E 1018,8 17 60 0,0
11.10.2018 15:00:00 14,9 11,9 17,5 19,0 13,7 13,4 13,5 13 7 30 16 E 1018,9 15 60 0,0
11.10.2018 14:00:00 14,9 11,8 17,8 18,5 13,2 13,4 13,4 9 5 30 16 E 1019,6 14 60 0,0
11.10.2018 13:00:00 15,0 11,4 17,4 16,9 12,7 13,4 13,3 10 5 41 22 E 1020,0 18 60 0,0
11.10.2018 12:00:00 15,1 11,6 17,3 15,4 12,4 13,4 13,2 17 9 33 18 E 1020,4 13 60 0,0
11.10.2018 11:00:00 14,9 11,8 16,3 13,6 12,2 13,4 13,2 10 5 35 19 ENE 1020,6 14 60 0,0
11.10.2018 10:00:00 14,7 11,9 14,2 11,9 12,2 13,4 13,2 9 5 34 18 ENE 1020,8 13 60 0,0
11.10.2018 09:00:00 14,1 11,7 13,1 11,7 12,2 13,4 13,2 18 10 49 26 E 1020,8 11 59 0,0
11.10.2018 08:00:00 13,6 11,8 12,7 11,5 12,2 13,4 13,2 43 23 49 27 ESE 1020,5 9 0 0,0
11.10.2018 07:00:00 13,7 11,9 12,9 11,5 12,2 13,4 13,2 41 22 48 26 ESE 1020,7 8 0 0,0
11.10.2018 06:00:00 13,8 12,0 12,7 11,5 12,3 13,4 13,2 40 21 47 25 ESE 1020,9 9 0 0,0

tt = temperature
td = dewpoint
tt 5cm = temperature 5cm
tt -5cm = temperature -5cm
tt -20cm = temperature -20cm
tt -100cm = temperature -100cm
tw = water temperature
ff = wind speed
fx = gusts
dd = wind direction
ppp = reduced air pressure
vv = visibility
sd = sunshine duration
rr = precipitation

Next stations